Flag for Ukraine Weather past 2 weeks in Luhansk, Ukraine

Now
34 °F

Fog.


Feels Like: 31 °F
Forecast: 33 / 37 °F
Wind: 3 mph from South

Location: Rostov-Na-Donu

Current Time: Jan 30, 2015 at 9:25:59 AM

Latest Report: Jan 30, 2015 at 8:30 AM


Visibility: 0 mi

Pressure: 29.89 "Hg

Humidity: 100%

Dew point: 34 °F

Location of LuhanskLocation

Historic Weather in Luhansk — Graph

°F

Luhansk temperature yesterday

Maximum temperature yesterday: 32 °F (at 12:00 AM)
Minimum temperature yesterday: 30 °F (at 4:00 AM)
Average temperature yesterday: 31 °F

Past Weeks' High & Low Weather Summary

 TemperatureHumidityPressure
High39 °F (Jan 19, 2:30 PM)100% (Jan 15, 8:00 AM)30.45 "Hg (Jan 15, 8:00 AM)
Low18 °F (Jan 24, 6:30 AM)75% (Jan 17, 5:00 AM)29.83 "Hg (Jan 29, 10:00 PM)
Average31 °F94%30.20 "Hg
* Reported Jan 15 8:00 AM — Jan 30 8:30 AM, Luhansk, Weather by CustomWeather, © 2014

Note: Actual official high and low records may vary slightly from our data, if they occured in-between our weather recording intervals... More about our weather records

Advertising

Luhansk weather history for previous 24 hours

 ConditionsComfort  
Time TempWeatherWind HumidityBarometerVisibility
8:30 AM
Jan 30
34 °FFog.3 mph100%29.89 "Hg0 mi
8:00 AM34 °FFog.3 mph100%29.89 "Hg0 mi
7:30 AM34 °FFog.6 mph100%29.89 "Hg0 mi
7:00 AM34 °FFog.6 mph100%29.89 "Hg0 mi
6:30 AM34 °FFog.6 mph100%29.89 "Hg0 mi
5:30 AM36 °FFog.6 mph100%29.86 "Hg0 mi
5:00 AM36 °FFog.6 mph100%29.86 "Hg0 mi
4:30 AM34 °FFog.6 mph100%29.86 "Hg0 mi
4:00 AM36 °FFog.6 mph100%29.83 "Hg0 mi
3:30 AM36 °FFog.6 mph100%29.83 "Hg0 mi
3:00 AM36 °FDrizzle. Fog.6 mph100%29.86 "Hg0 mi
2:30 AM34 °FDrizzle. Fog.3 mph100%29.83 "Hg0 mi
2:00 AM32 °FDrizzle. Fog.6 mph100%29.83 "Hg0 mi
1:30 AM32 °FLight rain. Fog.3 mph100%29.83 "Hg1 mi
1:00 AM32 °FLight rain. Ice fog.6 mph100%29.83 "Hg1 mi
12:30 AM32 °FIce fog.8 mph100%29.83 "Hg1 mi
12:00 AM32 °FIce fog.10 mph100%29.83 "Hg1 mi
11:30 PM
Jan 29
32 °FIce fog.8 mph100%29.83 "Hg2 mi
11:00 PM32 °FLight freezing rain. Ice fog.8 mph100%29.83 "Hg2 mi
10:30 PM32 °FLight freezing rain. Ice fog.10 mph100%29.83 "Hg2 mi
10:00 PM32 °FLight freezing rain. Ice fog.10 mph93%29.83 "Hg2 mi
9:30 PM32 °FLight freezing rain. Ice fog.10 mph93%29.86 "Hg2 mi
9:00 PM30 °FLight freezing rain. Ice fog.10 mph100%29.86 "Hg3 mi
8:30 PM30 °FLight freezing rain. Mostly cloudy.13 mph100%29.86 "Hg4 mi
8:00 PM30 °FLight freezing rain. Ice fog.13 mph100%29.86 "Hg2 mi
7:30 PM30 °FLight freezing rain. Mostly cloudy.15 mph100%29.86 "Hg3 mi
7:00 PM30 °FLight freezing rain. Mostly cloudy.15 mph100%29.86 "Hg2 mi
6:30 PM30 °FLight freezing rain. Mostly cloudy.15 mph100%29.86 "Hg5 mi
6:00 PM30 °FLight freezing rain. Mostly cloudy.15 mph100%29.86 "Hg4 mi
5:30 PM30 °FLight freezing rain. Ice fog.15 mph100%29.86 "Hg3 mi
5:00 PM30 °FLight freezing rain. Mostly cloudy.13 mph100%29.86 "Hg4 mi
4:30 PM30 °FLight freezing rain. Mostly cloudy.15 mph100%29.86 "Hg5 mi
4:00 PM30 °FLight freezing rain. Mostly cloudy.15 mph100%29.86 "Hg4 mi
3:30 PM30 °FLight freezing rain. Mostly cloudy.15 mph93%29.86 "Hg5 mi
3:00 PM30 °FMostly cloudy.15 mph93%29.86 "Hg5 mi
2:30 PM30 °FMostly cloudy.15 mph93%29.86 "Hg4 mi
2:00 PM30 °FMostly cloudy.15 mph93%29.86 "HgN/A
1:30 PM30 °FMostly cloudy.15 mph93%29.86 "HgN/A
1:00 PM30 °FMostly cloudy.15 mph93%29.89 "HgN/A
12:30 PM30 °FMostly cloudy.15 mph93%29.89 "Hg5 mi
12:00 PM30 °FLight snow. Ice fog.15 mph93%29.89 "Hg2 mi
11:30 AM30 °FSnow. Ice fog.15 mph93%29.89 "Hg1 mi
11:00 AM30 °FLight snow. Ice fog.15 mph93%29.89 "Hg2 mi
10:30 AM30 °FLight snow. Mostly cloudy.15 mph93%29.89 "HgN/A
10:00 AM30 °FLow clouds.17 mph93%29.89 "HgN/A
9:30 AM30 °FLow clouds.17 mph93%29.89 "HgN/A
9:00 AM30 °FLow clouds.15 mph93%29.89 "Hg4 mi
Weather by CustomWeather, © 2014

See weather overviewHow to use our weather pages